Tracking 29892 objects as of 21-Nov-2024
HD Live streaming from Space Station
objects crossing your sky now

STARLINK-31312

Track STARLINK-31312 now!
10-day predictions
STARLINK-31312 is classified as:


NORAD ID: 59152
Int'l Code: 2024-044A
Perigee: 450.2 km
Apogee: 452.1 km
Inclination: 43.0 °
Period: 93.5 minutes
Semi major axis: 6822 km
RCS: Unknown
Launch date: March 4, 2024
Source: United States (US)
Launch site: AIR FORCE EASTERN TEST RANGE (AFETR)
Your satellite tracking list
Your tracking list is empty




NASA's NSSDC Master Catalog

Two Line Element Set (TLE):
1 59152U 24044A   24325.77818776  .00000531  00000-0  19976-4 0  9998
2 59152  43.0032 227.3111 0001364 285.5942  74.4764 15.40701481 41538
Source of the keplerian elements: AFSPC